Tracking 28790 objects as of 19-Apr-2024
HD Live streaming from Space Station
objects crossing your sky now

THOR ABLESTAR DEB

Track THOR ABLESTAR DEB now!
10-day predictions


NORAD ID: 48816
Int'l Code: 1961-015MU
Perigee: 807.8 km
Apogee: 954.1 km
Inclination: 66.8 °
Period: 102.4 minutes
Semi major axis: 7251 km
RCS: Unknown
Launch date: June 29, 1961
Source: United States (US)
Launch site: AIR FORCE EASTERN TEST RANGE (AFETR)

Note: This is SATELLITE DEBRIS
Your satellite tracking list
Your tracking list is empty




NASA's NSSDC Master Catalog

Two Line Element Set (TLE):
1 48816U 61015MU  24092.45073703  .00001023  00000-0  64430-3 0  9992
2 48816  66.8052 127.1715 0100862  48.8804 312.0934 14.05788684532305
Source of the keplerian elements: AFSPC